Regional Weather Roundup
Issued by NWS

Home | Current Version | Previous Version | Graphics & Text | Print | Product List | Glossary On
Versions: 1 2 3 4 5 6 7 8 9 10 11 12 13 14 15 16 17 18 19 20 21 22 23 24 25 26
000
ASUS45 KTFX 260210
RWRMT
MONTANA REGIONAL WEATHER ROUNDUP
NATIONAL WEATHER SERVICE GREAT FALLS MT
800 PM MDT WED MAY 25 2016

NOTE: "FAIR" INDICATES FEW OR NO CLOUDS BELOW 12000 FEET WITH NO
SIGNIFICANT WEATHER AND/OR OBSTRUCTIONS TO VISIBILITY.

MTZ001>007-043-260300-
WEST OF THE DIVIDE

CITY           SKY/WX    TMP DP  RH WIND       PRES   REMARKS
KALISPELL      CLOUDY    58  51  78 S10       29.95S
MISSOULA       MOSUNNY   61  45  55 N8G17     29.98R
BUTTE          MOCLDY    58  33  39 N9        30.00R
MULLAN PASS    PTSUNNY   46  41  82 VRB7      30.07S
ANACONDA         N/A     59  34  38 W10       29.98S
DEER LODGE       N/A     59  37  44 NW10      29.99R
EUREKA           N/A     66  48  52 SE9       29.91S
HAMILTON         N/A     63  39  42 W6        29.99R
LIBBY            N/A     64  48  55 W5        29.95R
$$

MTZ008-052>055-260300-
SOUTHWEST MONTANA

CITY           SKY/WX    TMP DP  RH WIND       PRES   REMARKS
BOZEMAN        CLOUDY    60  38  43 NW18G29   29.93R
DILLON         MOCLDY    62  30  29 N13       29.96S
ENNIS          MOCLDY    55  41  58 SE8       30.03R
$$

MTZ009-010-012-014-046-048-049-054-260300-
EAST SLOPES AND CENTRAL MONTANA

CITY           SKY/WX    TMP DP  RH WIND       PRES   REMARKS
CUT BANK         N/A     61  40  45 N10       29.90R
GREAT FALLS    MOCLDY    53  44  71 SW10      29.88R
MALMSTROM AFB  PTCLDY    59  44  59 SW13      29.87R
HELENA         MOCLDY    60  41  49 SW3       29.90F
CHOTEAU          N/A     52  46  82 W18G30    29.93R
$$

MTZ011-013-016-021-045-047-050-051-260300-
NORTH CENTRAL MONTANA

CITY           SKY/WX    TMP DP  RH WIND       PRES   REMARKS
HAVRE            N/A    N/A N/A N/A MISG      29.86R
LEWISTOWN      CLOUDY    50  44  80 SE12      29.90F
N BAR RANCH    LGT RAIN  46  41  81 N9        29.97R
CHINOOK          N/A     59  45  58 CALM      29.86S
$$

MTZ017>020-022>027-061-062-260300-
NORTHEAST MONTANA

CITY           SKY/WX    TMP DP  RH WIND       PRES   REMARKS
GLASGOW        PTCLDY    59  46  62 N15       29.82R
JORDAN           N/A     61  43  51 NW9       29.83R
SIDNEY         CLEAR     61  46  59 N3        29.82S
WOLF POINT     CLEAR     62  47  57 CALM      29.82S
PLENTYWOOD       N/A     54  50  87 N8        29.82S
$$

MTZ028>42-056>058-260300-
SOUTHCENTRAL AND SOUTHEAST MONTANA

CITY           SKY/WX    TMP DP  RH WIND       PRES   REMARKS
BAKER          PTCLDY    59  44  57 CALM      29.85F
BILLINGS       MOCLDY    60  45  57 NW25      29.88R THUNDER
LIVINGSTON     CLOUDY    58  36  43 NW15G23   29.93R
MILES CITY     CLOUDY    57  48  72 S6        29.85R
FORSYTH          N/A     61  52  72 E5        29.85R
$$

REGIONAL REPORTS...DAKOTAS

CITY           SKY/WX    TMP DP  RH WIND       PRES   REMARKS
WILLISTON      CLEAR     56  49  77 NW6       29.82R
MINOT          CLOUDY    60  55  83 S6        29.75R
DICKINSON      CLEAR     54  42  64 NW9       29.81S
BEACH            N/A     55  43  62 NW7       29.87S
CROSBY         CLOUDY    54  54 100 W12       29.81S
WATFORD CITY     N/A     55  48  76 NW8       29.81F
BISMARCK       CLOUDY    62  59  90 W9        29.76S THUNDER
GRAND FORKS    CLOUDY    60  58  92 NW13      29.66R
FARGO          CLEAR     64  57  78 SW8       29.73R
BUFFALO SD       N/A     62  45  53 NW7       29.80S
RAPID CITY     PTCLDY    57  50  77 CALM      29.89R
$$

REGIONAL REPORTS...WYOMING/IDAHO/WASHINGTON

CITY           SKY/WX    TMP DP  RH WIND       PRES   REMARKS
GILLETTE       CLOUDY    54  44  69 CALM      29.94R
SHERIDAN       CLOUDY    52  46  80 S7        29.90F
BUFFALO WY       N/A     50  42  74 MISG      29.97R
CODY           CLOUDY    57  37  47 N9        29.94S
YELLOWSTONE LA   N/A     38  34  85 CALM      30.10R
IDAHO FALLS    CLOUDY    56  41  57 S6        30.02S
SALMON         SUNNY     63  36  36 N7        29.94R
BOISE          SUNNY     69  37  30 NW7       29.96S
SPOKANE        PTSUNNY   69  40  34 W14       29.97S
$$

REGIONAL REPORTS...ALBERTA

CITY           SKY/WX    TMP DP  RH WIND       PRES   REMARKS
EDMONTON       MOSUNNY   59  50  72 SW6       29.85F
CALGARY        PTSUNNY   64  36  34 SE7       29.89R
LETHBRIDGE     MOSUNNY   63  43  48 E7        29.87F
MEDICINE HAT   PTCLDY    63  43  48 NE5       29.88R
WATERTON GATE    N/A     55  45  67 SW8         N/A
MILK RIVER       N/A     61  43  51 NE9         N/A
$$

REGIONAL REPORTS...SASKATCHEWAN

CITY           SKY/WX    TMP DP  RH WIND       PRES   REMARKS
SWIFT CURRENT  MOCLDY    54  46  76 E12G17    29.86R
REGINA         LGT RAIN  54  52  94 N8        29.85F
SASKATOON      MOCLDY    63  48  59 N8        29.87S
CYPRESS HILLS    N/A     50  43  76 N5          N/A
VAL MARIE        N/A     55  46  71 E13         N/A
ROCKGLEN         N/A     54  45  71 NE3         N/A
ASSINIBOIA       N/A     68  43  40 S6          N/A
$$




USA.gov is the U.S. government's official web portal to all federal, state and local government web resources and services.